This is the latest recevied weather packets stored in our database for station/object N4ASP-13. If no packets are shown the sender has not sent any weather packets the latest 10 day(s).
| Time | Temp. | Humidity | Pressure | Rain* | Wind** | Luminosity | Snow |
|---|---|---|---|---|---|---|---|
| 1788620319 | 30° C | 71% | 1016.2 hPa | 0 mm | - | 773 W/m² | - |
| 1788620261 | 30° C | 72% | 1016.2 hPa | 0 mm | - | 772 W/m² | - |
| 1788620200 | 30° C | 73% | 1016.2 hPa | 0 mm | - | 768 W/m² | - |
| 1788620137 | 30° C | 71% | 1016.2 hPa | 0 mm | - | 765 W/m² | - |
| 1788620076 | 30° C | 72% | 1016.2 hPa | 0 mm | - | 763 W/m² | - |
| 1788620009 | 30° C | 72% | 1016.3 hPa | 0 mm | - | 761 W/m² | - |
| 1788619945 | 30° C | 70% | 1016.3 hPa | 0 mm | - | 759 W/m² | - |
| 1788619885 | 30° C | 72% | 1016.2 hPa | 0 mm | - | 754 W/m² | - |
| 1788619827 | 30° C | 71% | 1016.2 hPa | 0 mm | - | 751 W/m² | - |
| 1788619766 | 30° C | 71% | 1016.2 hPa | 0 mm | - | 747 W/m² | - |
| 1788619706 | 30° C | 71% | 1016.3 hPa | 0 mm | - | 744 W/m² | - |
| 1788619644 | 30° C | 73% | 1016.3 hPa | 0 mm | - | 742 W/m² | - |
| 1788619581 | 30° C | 74% | 1016.4 hPa | 0 mm | - | 737 W/m² | - |
| 1788619523 | 30° C | 73% | 1016.4 hPa | 0 mm | - | 735 W/m² | - |
| 1788619460 | 30° C | 70% | 1016.3 hPa | 0 mm | - | 733 W/m² | - |
| 1788619400 | 30° C | 71% | 1016.3 hPa | 0 mm | - | 731 W/m² | - |
| 1788619337 | 30° C | 71% | 1016.3 hPa | 0 mm | - | 729 W/m² | - |
| 1788619275 | 30° C | 71% | 1016.4 hPa | 0 mm | - | 726 W/m² | - |
| 1788619216 | 30° C | 72% | 1016.3 hPa | 0 mm | - | 719 W/m² | - |
| 1788619153 | 30° C | 72% | 1016.4 hPa | 0 mm | - | 717 W/m² | - |
| 1788619084 | 30° C | 72% | 1016.4 hPa | 0 mm | - | 715 W/m² | - |
| 1788619024 | 30° C | 71% | 1016.3 hPa | 0 mm | - | 714 W/m² | - |
| 1788618994 | 30° C | 70% | 1016.3 hPa | 0 mm | - | 710 W/m² | - |
| 1788618903 | 30° C | 70% | 1016.4 hPa | 0 mm | - | 708 W/m² | - |
| 1788618843 | 30° C | 70% | 1016.5 hPa | 0 mm | - | 705 W/m² | - |
* Rain latest hour (hover to see other rain measurements)
** Current wind speed in m/s (hover to see current wind gust speed)